C/2018 F3 ( Johnson )

Japanese version
Home page
Updated on September 22, 2018

---------------------------------------------------------------------

* Profile

Discovery Date March 20, 2018
Magnitude 19.4 mag
Discoverer J. A. Johnson (Mount Lemmon)

* Pictures

* Orbital Elements

T 2017 Aug. 15.23138 TT                                 MPCW
q   2.4831716            (2000.0)            P               Q
                   Peri.  293.01130     -0.41793409     -0.90092513
                   Node   173.03114     +0.17176506     +0.04799166
e   1.0            Incl.  105.53484     -0.89209185     +0.43131278
From 51 observations 2018 Mar. 20-Apr. 6.

* Magnitudes Graph

        m1 = 12.5 + 5 log d + 10.0 log r

---------------------------------------------------------------------

The orbital elements are published on M.P.E.C. 2018-H105.
The magnitudes graphs are made with Comet for Windows.

---------------------------------------------------------------------

Copyright(C) Seiichi Yoshida (comet@aerith.net). All rights reserved.